Forside
METAR-TAF:

METAR-TAF

Lufthavne :

Menomonie Municipal Airport (Score Field)

Menomonie, Wisconsin, USA

Breddekreds: 44-53-32N, længdekreds: 091-52-04W, højde: 273 m

Aktuelle vejr

Denne rapport blev lavet for 18 minutter siden, kl. 09:15 UTC
Vind stille
Temperatur -10°C
Fugtighed 92%
Tryk 1027 hPa
Sigt: 16.1 km
skyfri

METAR: KLUM 270915Z AUTO 00000KT 10SM CLR M10/M11 A3032 RMK AO2 T11001110

Tid: 04:33 (09:33 UTC)


TAF: fraværende

Vejrobservationer og prognoser fra mere end 4000 lufthavne (METAR og TAF).

De gule og røde prikker repræsenterer de meteorologiske stationer.

Flyt musen over at se navnet på stationen.

Så klik over at se vejr observationer og prognoser.

At skifte det kort: Klik på de grønne knapper med et sort kors for at zoome ind; på den grønne knap med en bindestreg for at zoome ud; eller på de grønne pile for tilstødende kort.


METAR-TAF: